Location: Chena
(64.8152°N, 147.9227°W)
Time: 00:28:11
(UTC+00:00)

Vanguard 2 - Pass Details

Date: 12 March 2021
Orbit: 552 x 2938 km, 32.9° (Epoch: 10 April)

Event Time Altitude Azimuth Distance (km) Brightness Sun altitude
Rises 12:29:35 0° 212° (SSW) 5,028 - -22.8°
Reaches altitude 10° 12:35:56 10° 185° (S) 4,613 - -22.4°
Exits shadow 12:37:31 11° 178° (S) 4,632 11.1 -22.3°
Maximum altitude 12:40:05 12° 166° (SSE) 4,759 11.2 -22.1°
Drops below altitude 10° 12:44:41 10° 148° (SSE) 5,235 11.6 -21.7°
Sets 12:53:27 0° 125° (SE) 6,646 12.5 -21.1°
